Погода Атырау

Погода Атырау : погода сейчас, прогноз погоды и архив. Всё, что Вы хотите узнать о погоде Атырау!

Хотите узнать прогноз погоды в Атырау? Тогда Вам сюда: Погода в Атырау

Поиск расширенной информации на нашем сайте:

Другие новости

Новости СМИ2

Главная страница сайта

Новости сайта

02.10.2013

Напоминаем, что на нашем новом сайте вы можете получить высокодетализированные прогнозы погоды по пунктам России, СНГ и мира (включающие важные для авиации метеовеличины, такие как направление и скорость ветра, видимость, явления погоды, количество и форма облачности, нижняя и верхняя граница облачности), а также ознакомиться с разнообразными материалами по авиационной метеорологии и подборкой полезных ссылок на эту тему.

Сайт Метеоцентр.Азия посвящён разработке технологий оптимизации авиаметеорологического обслуживания, включая проектирование и перспективное создание нескольких автоматизированных авиаметеорологических систем:
- система выпуска высокодетальных прогностических карт явлений погоды для нижнего воздушного пространства по России и ближнему зарубежью;
- система верификации прогнозов TAF (выпускаемых синоптиками официальных АМСГ РФ и ближнего зарубежья) и AUTOTAF (выпускаемых сайтом Метеоцентр.Азия) - выявление ошибок, онлайн-сопоставление с фактической погодой METAR, автоматическое внесение коррективов в прогнозы при резком отклонении фактической погоды от прогноза, подсчёт оправдываемости прогнозов по элементам и в целом;
- система обработки, анализа и отображения авиаметеорологической информации для применения провайдерами метеорологической информации.

Рекомендуем: Здесь. Продажа реактивов для бассейна. Предложение.

Погода Атырау - сегодня

Время (UTC), дата Ветер
(°,м/с) 
Видим.   Явления Облачность Т
(°С)
Тd
(°С)
f(%) Тe
(°С)
Pmin
(гПа)
dP
(гПа)
Po
(мм)
O2
(г/м3)
Тmin Tmax R s Состояние
почвы
15 25.02.17 200 (Ю) 20000 м    8/0 средняя 
[Ac As]
+3.7 +0.5 80 +2  1016.5  -0.3  764  304    +9.7       
18 25.02.17 220 (ЮЗ) 20000 м    8/0 средняя 
[Ac As]
+2.9 +0.5 84 +2  1015.4  -1.1  763  304    +9.7       
21 25.02.17 160 (Ю) 20000 м    8/0 средняя 
[Ac As]
+1.9 +0.3 89 +1  1012.8  -2.6  761  305           
00 26.02.17 180 (Ю) 20000 м    8/6 1000 м средняя 
[Sc|Ac As]
+3.6 -0.5 75 +2  1010.5  -2.4  760  302           
03 26.02.17 210 (ЮЗ) 20000 м    9/9 1000 м 
[Sc]
+3 -1.2 74 +2  1010.1  -0.4  759  303           
06 26.02.17 220 (ЮЗ) 20000 м    10/10 600 м 
[Sc]
+4.5 -0.3 71 +3  1009.8  -0.3  759  301  +1.8         
09 26.02.17 330 (СЗ) 4000 м  слаб. дождь  10/10 600 м 
[Ns]
+1.4 -0.3 88 -2  1014  4.3  762  306           
12 26.02.17 320 (СЗ) 20000 м  в посл. час дождь со снегом  10/10 600 м 
[Ns]
+0.6 -1.4 86 -2  1016.7  2.7  764  307           
15 26.02.17 270 (З) 20000 м    8/8 600 м 
[Sc]
+1.3 -5 63 1019.9  3.2  767  308    +4.6     
18 26.02.17 290 (З) 20000 м    6/6 600 м 
[Sc]
-0.7 -4.9 73 -3  1021.9  768  311    +4.6     
21 26.02.17 260 (З) 20000 м    6/6 600 м 
[Sc]
-2.2 -5.4 79 -3  1022.9  769  313           
00 27.02.17 280 (З) 20000 м    8/8 600 м 
[Sc]
-2.1 -4.9 81 -5  1023.8  0.9  770  313           
03 27.02.17 260 (З) 20000 м    6/0 средняя 
[Ac lent]
-3.1 -5.5 83 -4  1025.3  1.5  771  315        мокрый или
старый снег
10-40% 
06 27.02.17 260 (З) 20000 м    4/0 средняя 
[Ac lent]
-0.2 -4.2 74 -1  1027.1  1.8  772  312  -3.2         
09 27.02.17 260 (З) 20000 м    8/4 1000 м верхняя 
[Cu hum|Cs]
+2.2 -6.1 54 1026.9  -0.2  772  309           
12 27.02.17 230 (ЮЗ) 20000 м    3/3 1000 м 
[Cu hum]
+2.8 -6.1 52 +1  1026.5  -0.4  772  308           
15 27.02.17 210 (ЮЗ) 20000 м    ясно 
+0.2 -4.6 70 -2  1026.3  -0.2  772  311    +3.7       
18 27.02.17 190 (Ю) 20000 м    ясно 
-1.2 -3.8 82 -2  1026.3  772  313    +3.7       
21 27.02.17 200 (Ю) 20000 м    10/0 средняя 
[Ac As]
-1.1 -3.7 82 -2  1026.1  -0.2  771  313           
00 28.02.17 210 (ЮЗ) 20000 м    10/10 600 м 
[Sc]
-0.4 -3.4 80 -2  1026  -0.1  771  312           
03 28.02.17 160 (Ю) 20000 м  слаб. снег  10/10 600 м 
[Sc]
-0.3 -1.8 90 -1  1025.6  -0.4  771  311      0.0  равномерный
сухой снег
100% 
06 28.02.17 180 (Ю) 20000 м  {снег}  10/10 300 м 
[Frnb]
+1.5 -1 83 +1  1026.4  0.8  772  309  -1.5    0.0     
09 28.02.17 220 (ЮЗ) 10 км  слаб. снег  10/10 600 м 
[Sc]
+2.3 -1.7 75 +2  1026.5  0.1  772  309           
12 28.02.17 210 (ЮЗ) 20000 м  {снег}  10/10 600 м 
[Sc]
+3.6 -2.7 63 +3  1025.5  -1  771  307           
15 28.02.17 230 (ЮЗ) 10 км  слаб. дождь  10/10 600 м 
[Ns]
+2.4 -1.9 73 +2  1025.4  -0.1  771  308    +3.8  0.0     
Время (UTC), дата Ветер
(°,м/с) 
Видим.   Явления Облачность Т
(°С)
Тd
(°С)
f(%) Тe
(°С)
Pmin
(гПа)
dP
(гПа)
Po
(мм)
O2
(г/м3)
Тmin Tmax R s Состояние
почвы

Для получения пояснительной информации подведите курсор к названию столбца.

ПОГОДА Атырау - архив

Всё, что Вы хотите узнать о погоде Атырау - удобно и подробно!

Выберите нужную дату (начиная с 1 января 2015* года) и нажмите кнопку "Найти".
Будут отображены архивные сводки погоды по пункту Атырау, начиная с указанной даты.


Отображать данные в формате CSV (для использования в таблицах Excel)


Внимание! Наш архив погоды предназначен исключительно для личного некоммерческого использования в познавательных целях. Если Вам необходимы официальные справки о состоянии погоды (для производственных, юридических, коммерческих и т.п. целей), обращайтесь в органы Росгидромета.

*Примечание: данная дата относится к архиву по метеостанциям СССР (Россия, СНГ, Балтия).
Архив по метеостанциям Зарубежной Европы и Азии (кроме Китая) хранится 10 дней, по другим регионам земного шара (Китай, Африка, Америка, Австралия, Океания) - 1 день.

Атырау - район местоположения метеостанции


Название, широта, долгота, высота метеостанции:
Атырау (город) 47.1°ш. 51.7°д. -23 м над ур. моря [Казахстан]

Дополнительная информация

В oтличие oт бoльшинства пoгoдных сайтoв мы публикуем пoдрoбную метеoинфoрмацию в детальнoм прoфессиoнальнoм фoрмате.

Характеристики температуры и влажнoсти вoздуха измеряются на высoте 2 м в тени вдали oт зданий и деревьев.
Скoрoсть ветра измеряется на высoте 10 м (на урoвне рoста челoвека скoрoсть ветра ниже в 1.5-2 раза). Если метеoстанция нахoдится в гoрoде или в лесу, тo скoрoсть ветра занижена на 2-4 м/с пo сравнению с oткрытым местoм. Скoрoсть ветра над акватoриями крупных рек и oзёр, а также на вершинах хoлмoв на 2-5 м/с выше, чем в oбычных услoвиях.
Атмoсфернoе давление в разных тoчках местнoсти мoжет значительнo oтличаться oт давления на метеoстанции, в зависимoсти oт услoвий рельефа (при пoдъёме на 10 м давление пoнижается примернo на 1 мм рт.ст.).